Location: Home
(42.5358°N, 72.7383°W)
Time: 00:02:15
(UTC-05:00)

Vanguard 3 - Pass Details

Date: 03 December 2021
Orbit: 508 x 3260 km, 33.3° (Epoch: 21 January)

Event Time Altitude Azimuth Distance (km) Brightness Sun altitude
Rises 04:33:31 0° 245° (WSW) 7,122 - -26.9°
Reaches altitude 10° 04:38:19 10° 242° (WSW) 6,182 - -26.0°
Exits shadow 04:41:27 17° 239° (WSW) 5,577 10.9 -25.5°
Maximum altitude 04:57:30 58° 170° (S) 3,251 10.2 -22.5°
Drops below altitude 10° 05:11:31 10° 97° (E) 4,679 12.2 -20.0°
Sets 05:14:36 0° 93° (E) 5,368 12.9 -19.4°
